Volver al catálogo

TURKSAT 1B

ActivoComunicacionesGEO
NORAD 23200·PAYLOAD·🇹🇷 Turkey

Lanzado Aug 10, 1994 desde Guiana Space Centre

Loading…

TLE

ActualizadoSource: Space-Track

Época: Sep 14, 2026, 00:10 UTC

1 23200U 94049B   26257.00727645 -.00000136  00000-0  00000-0 0  9997
2 23200  13.7908  15.8585 0017016 125.4572 226.0278  0.99049164116175

Sigue TURKSAT 1B en tiempo real con AllMySat

Download on the App Store